Regional Weather Roundup
Issued by NWS

Home | Current Version | Previous Version | Text Only | Print | Product List | Glossary Off
Versions: 1 2 3 4 5 6 7 8 9 10 11 12 13 14 15 16 17 18 19 20 21 22 23 24 25 26 27 28 29 30 31 32 33 34 35 36 37 38 39 40 41 42 43 44 45 46 47 48 49 50

591
ASUS43 KBIS 272310
RWRND

NORTH DAKOTA REGIONAL WEATHER ROUNDUP
NATIONAL WEATHER SERVICE BISMARCK ND
600 PM CDT THU APR 27 2017

NOTE: "FAIR" INDICATES FEW OR NO CLOUDS BELOW 12,000 FEET WITH NO
SIGNIFICANT WEATHER AND/OR OBSTRUCTIONS TO VISIBILITY.


NDZ001>003-009>011-017-280000-
NORTHWEST NORTH DAKOTA

CITY           SKY/WX    TMP DP  RH WIND       PRES   REMARKS
WILLISTON      FAIR      54  17  23 SE9       29.74R
MINOT          FAIR      52  19  27 NE13      29.74R
MINOT AFB      SUNNY     51  21  30 N13       29.73R
$$

NDZ018>021-031>035-040>046-280000-
SOUTHWEST NORTH DAKOTA

CITY           SKY/WX    TMP DP  RH WIND       PRES   REMARKS
BISMARCK       FAIR      53  26  35 N5        29.71S
DICKINSON      FAIR      49  21  33 VRB6      29.68R
GARRISON         N/A     50  16  25 VRB7      29.72S
HETTINGER ARPT SUNNY     50  25  37 E13       29.69R
$$

NDZ004>008-012>016-024-026-027-054-280000-
NORTHEAST NORTH DAKOTA

CITY           SKY/WX    TMP DP  RH WIND       PRES   REMARKS
GRAND FORKS    CLOUDY    46  33  60 N15       29.66R
GRND FRKS AFB  CLOUDY    45  31  59 NE18G28   29.67R
DEVILS LAKE    FAIR      47  28  47 N20G25    29.71R
$$

NDZ022-023-025-028>030-036>039-047>053-280000-
SOUTHEAST NORTH DAKOTA

CITY           SKY/WX    TMP DP  RH WIND       PRES   REMARKS
FARGO          CLOUDY    40  30  67 N6        29.68R
JAMESTOWN      FAIR      50  31  48 N17       29.67R
$$





USA.gov is the U.S. government's official web portal to all federal, state and local government web resources and services.